Weather in Shibertuy

Russia / Republic of Buryatia     50°47′42″N   107°52′03″E
temp.,
°C
wind,
m/s
gust,
m/s
humid.,
%
clouds,
%
prec.,
mm/h
press.,
hPa
HPBL,
m
27 november, sat
sat2723:00−7w2385100 0.0 102043
02:00−4w2792100 0.1 1022334
05:00−5nw3891100 0.4 1025357
08:00−7wnw3791100 0.6 1030405
11:00−7nw3886100 0.7 1032589
14:00−7nnw4773100 0.9 1032818
17:00−9nnw3775100 0.0 1036435
20:00−11wnw2389100 0.0 103864
28 november, sun
sun2823:00−13wnw1190100 0.0 104027
02:00−13wnw1193100 0.0 104020
05:00−15wnw1195100 0.0 104111
08:00−18nw11955 0.0 104210
11:00−13sw12815 0.0 1040161
14:00−11sw12725 0.0 1037308
17:00−15nne11925 0.0 10379
20:00−17ne119466 0.0 103710
29 november, mon
mon2923:00−15ene1192100 0.0 103522
02:00−15ene0092100 0.0 103410
05:00−15wnw1193100 0.0 103510
08:00−16w1195100 0.0 10369
11:00−12sw128156 0.0 1036120
14:00−9sw247899 0.0 1034311
17:00−12wsw2195100 0.1 103613
20:00−14w239654 0.2 103847
30 november, tue
tue3023:00−13wsw2295100 0.0 103841
02:00−14wsw219879 0.3 103711
05:00−17wnw119819 0.0 103810
08:00−17w119781 0.0 10379
11:00−11sw127959 0.0 1035115
14:00−8wsw236738 0.0 1031219
17:00−14w118930 0.0 10329
20:00−16wnw119267 0.0 103310
1 december, wed
wed123:00−14wnw119289 0.0 10339
02:00−16wnw119345 0.0 10319
05:00−17wnw119430 0.0 10309
08:00−17w119422 0.0 102910
11:00−10wsw237574 0.0 1025120
14:00−8sw3572100 0.0 1023244
17:00−11wsw2390100 0.0 102537
20:00−8w31592100 0.7 10241231